Oakland, CA

1:26 PM PST on December 09, 2019 (GMT -0800)
Metro Oakland International

Weather History for KOAK - October, 2019

Change the Weather History Date:

Friday, October 11, 2019

  Actual Average Record
Temperature  
Mean Temperature 61 °F 61 °F  
Max Temperature 76 °F 71 °F 88 °F (2004)
Min Temperature 45 °F 52 °F 44 °F (1960)
Degree Days  
Heating Degree Days 4 4  
Month to date heating degree days 32 39  
Since 1 July heating degree days 62 239  
Cooling Degree Days 0 1  
Month to date cooling degree days 9 11  
Year to date cooling degree days 373 136  
Growing Degree Days 12 (Base 50)    
Moisture  
Dew Point 38 °F    
Average Humidity 48    
Maximum Humidity 71    
Minimum Humidity 24    
Precipitation  
Precipitation 0.00 in 0.03 in 2.38 in (1962)
Month to date precipitation 0.00 0.26  
Year to date precipitation 15.94 13.76  
Sea Level Pressure  
Sea Level Pressure 29.99 in    
Wind  
Wind Speed 4 mph (WNW)    
Max Wind Speed 10 mph    
Max Gust Speed 13 mph    
Visibility 10 miles    
Events      
T = Trace of Precipitation, MM = Missing Value Source: NWS Daily Summary

Daily Weather History Graph

Daily Weather History Graph

Search for Another Location

Airport or City:

Astronomy

Oct. 11, 2019 Rise Set
Actual Time 7:13 AM PDT 6:37 PM PDT
Civil Twilight 6:47 AM PDT 7:03 PM PDT
Nautical Twilight 6:16 AM PDT 7:33 PM PDT
Astronomical Twilight 5:46 AM PDT 8:04 PM PDT
Moon 6:05 PM PDT (10/11) 5:02 AM PDT (10/11)
Length of Visible Light 12h 16m
Length of Day
11h 23m
Waxing Gibbous, 96% of the Moon is Illuminated
Oct 11
Waxing Gibbous
Oct 13
Full
Oct 21
Last Quarter
Oct 27
New
Nov 4
First Quarter

Hourly Weather History & Observations

Time (PDT) Temp. Dew Point Humidity Pressure Visibility Wind Dir Wind Speed Gust Speed Precip Events Conditions
1:53 AM 51.1 °F 36.0 °F 56% 30.00 in 10.0 mi NE 3.5 mph - N/A   Scattered Clouds
2:53 AM 53.1 °F 37.0 °F 55% 30.01 in 10.0 mi Calm Calm - N/A   Scattered Clouds
3:53 AM 48.9 °F 34.0 °F 56% 30.00 in 10.0 mi Calm Calm - N/A   Partly Cloudy
4:53 AM 48.9 °F 35.1 °F 59% 30.00 in 10.0 mi Calm Calm - N/A   Partly Cloudy
5:53 AM 52.0 °F 34.0 °F 50% 30.01 in 10.0 mi Calm Calm - N/A   Partly Cloudy
6:53 AM 57.9 °F 34.0 °F 41% 30.01 in 10.0 mi Calm Calm - N/A   Clear
7:53 AM 55.0 °F 36.0 °F 49% 30.03 in 10.0 mi Calm Calm - N/A   Partly Cloudy
8:53 AM 63.0 °F 30.9 °F 30% 30.04 in 10.0 mi SSE 3.5 mph - N/A   Scattered Clouds
9:53 AM 64.9 °F 35.1 °F 33% 30.06 in 10.0 mi SSW 5.8 mph - N/A   Partly Cloudy
10:53 AM 66.0 °F 39.9 °F 38% 30.05 in 10.0 mi WSW 8.1 mph - N/A   Scattered Clouds
11:53 AM 66.9 °F 44.1 °F 44% 30.04 in 10.0 mi WSW 6.9 mph - N/A   Scattered Clouds
12:53 PM 68.0 °F 44.1 °F 42% 30.02 in 10.0 mi WSW 6.9 mph - N/A   Scattered Clouds
1:53 PM 70.0 °F 36.0 °F 29% 30.00 in 10.0 mi WSW 5.8 mph - N/A   Scattered Clouds
2:53 PM 72.0 °F 39.0 °F 30% 29.97 in 10.0 mi West 5.8 mph - N/A   Scattered Clouds
3:53 PM 73.9 °F 42.1 °F 32% 29.95 in 10.0 mi West 8.1 mph - N/A   Partly Cloudy
4:53 PM 75.9 °F 37.0 °F 24% 29.93 in 10.0 mi WNW 6.9 mph - N/A   Partly Cloudy
5:53 PM 73.9 °F 37.0 °F 26% 29.92 in 10.0 mi NW 6.9 mph - N/A   Partly Cloudy
6:53 PM 71.1 °F 32.0 °F 24% 29.92 in 10.0 mi NNW 5.8 mph - N/A   Partly Cloudy
7:53 PM 69.1 °F 34.0 °F 27% 29.94 in 10.0 mi NW 4.6 mph - N/A   Partly Cloudy
8:53 PM 64.9 °F 39.0 °F 39% 29.94 in 10.0 mi WNW 3.5 mph - N/A   Partly Cloudy
9:53 PM 62.1 °F 46.9 °F 58% 29.95 in 10.0 mi NW 4.6 mph - N/A   Partly Cloudy
10:53 PM 61.0 °F 45.0 °F 56% 29.95 in 10.0 mi NNW 3.5 mph - N/A   Clear
11:53 PM 54.0 °F 44.1 °F 69% 29.96 in 10.0 mi Calm Calm - N/A   Clear